Flag for Italy Weather past 2 weeks in Venice, Italy

Now
61 °F

Clear.


Feels Like: 61 °F
Forecast: 52 / 70 °F
Wind: 6 mph from Southeast

Location: Venice / Tessera

Current Time: Apr 21, 2015 at 11:07:14 AM

Latest Report: Apr 21, 2015 at 10:20 AM


Visibility: 5 mi

Pressure: 30.24 "Hg

Humidity: 63%

Dew point: 48 °F

Location of VeniceLocation

Historic Weather in Venice — Graph

°F

Venice temperature yesterday

Maximum temperature yesterday: 64 °F (at 3:20 PM)
Minimum temperature yesterday: 41 °F (at 5:50 AM)
Average temperature yesterday: 54 °F

Past Weeks' High & Low Weather Summary

 TemperatureHumidityPressure
High70 °F (Apr 12, 3:50 PM)100% (Apr 12, 5:20 AM)30.45 "Hg (Apr 12, 5:20 AM)
Low37 °F (Apr 8, 5:50 AM)15% (Apr 7, 1:20 PM)29.89 "Hg (Apr 17, 7:20 PM)
Average55 °F69%30.21 "Hg
* Reported Apr 6 9:20 AM — Apr 21 9:50 AM, Venice, Weather by CustomWeather, © 2015

Note: Actual official high and low records may vary slightly from our data, if they occured in-between our weather recording intervals... More about our weather records

Advertising

Venice weather history for previous 24 hours

 ConditionsComfort  
Time TempWeatherWind HumidityBarometerVisibility
9:50 AM
Tue, Apr 21
61 °FClear.2 mph63%30.24 "Hg5 mi
9:20 AM57 °FClear.3 mph72%30.24 "Hg5 mi
8:50 AM57 °FClear.3 mph72%30.21 "Hg5 mi
8:20 AM54 °FClear.6 mph72%30.21 "Hg4 mi
7:50 AM52 °FClear.5 mph72%30.21 "Hg4 mi
7:20 AM48 °FClear.7 mph87%30.21 "Hg4 mi
6:50 AM46 °FClear.7 mph93%30.18 "Hg4 mi
6:20 AM46 °FClear.7 mph87%30.18 "Hg4 mi
5:50 AM46 °FClear.5 mph87%30.18 "Hg4 mi
5:20 AM46 °FClear.3 mph87%30.15 "Hg4 mi
4:50 AM48 °FClear.6 mph87%30.15 "Hg4 mi
4:20 AM48 °FClear.5 mph87%30.18 "Hg5 mi
3:50 AM48 °FClear.5 mph87%30.18 "Hg10 mi
3:20 AM50 °FClear.7 mph82%30.15 "Hg10 mi
2:50 AM52 °FClear.8 mph77%30.15 "Hg10 mi
2:20 AM52 °FClear.6 mph82%30.15 "Hg10 mi
1:50 AM50 °FClear.7 mph88%30.15 "Hg10 mi
1:20 AM52 °FClear.8 mph88%30.15 "Hg10 mi
12:50 AM52 °FClear.1 mph94%30.12 "Hg10 mi
12:20 AM54 °FClear.2 mph88%30.12 "Hg10 mi
11:50 PM
Mon, Apr 20
55 °FClear.5 mph88%30.12 "Hg10 mi
11:20 PM57 °FClear.3 mph77%30.09 "Hg10 mi
10:50 PM57 °FPassing clouds.3 mph77%30.09 "HgN/A
10:20 PM57 °FClear.6 mph72%30.09 "Hg10 mi
9:50 PM57 °FClear.5 mph72%30.09 "Hg10 mi
9:20 PM55 °FClear.7 mph77%30.07 "Hg10 mi
8:50 PM57 °FSunny.7 mph72%30.07 "Hg10 mi
8:20 PM57 °FSunny.7 mph67%30.07 "Hg10 mi
7:50 PM59 °FSunny.9 mph63%30.04 "Hg10 mi
7:20 PM59 °FSunny.9 mph55%30.04 "Hg10 mi
6:50 PM61 °FPassing clouds.9 mph55%30.04 "HgN/A
6:20 PM63 °FSunny.10 mph49%30.04 "Hg10 mi
5:50 PM63 °FSunny.9 mph49%30.04 "Hg10 mi
5:20 PM63 °FSunny.10 mph49%30.04 "Hg10 mi
4:50 PM64 °FPassing clouds.12 mph43%30.04 "HgN/A
4:20 PM64 °FSunny.12 mph43%30.07 "Hg10 mi
3:50 PM64 °FSunny.10 mph46%30.07 "Hg10 mi
3:20 PM64 °FSunny.12 mph46%30.07 "Hg10 mi
2:50 PM63 °FSunny.12 mph45%30.09 "Hg10 mi
2:20 PM63 °FSunny.10 mph45%30.09 "Hg10 mi
1:50 PM61 °FPassing clouds.9 mph45%30.12 "HgN/A
1:20 PM61 °FPassing clouds.8 mph48%30.12 "HgN/A
12:50 PM61 °FPassing clouds.8 mph48%30.15 "HgN/A
12:20 PM59 °FPassing clouds.8 mph48%30.15 "HgN/A
11:50 AM59 °FPassing clouds.7 mph59%30.15 "HgN/A
11:20 AM59 °FPassing clouds.6 mph48%30.15 "HgN/A
Weather by CustomWeather, © 2015

See weather overviewHow to use our weather pages